Погода в Сектагли

Погода в Сектагли : погода сейчас, прогноз погоды и архив. Всё, что Вы хотите узнать о погоде в Сектагли!

Поиск расширенной информации на нашем сайте:

Полезная информация: Священное животное питомник донских сфинксов.

Другие новости

Новости СМИ2

Главная страница сайта

Новости сайта

02.10.2013

Напоминаем, что на нашем новом сайте вы можете получить высокодетализированные прогнозы погоды по пунктам России, СНГ и мира (включающие важные для авиации метеовеличины, такие как направление и скорость ветра, видимость, явления погоды, количество и форма облачности, нижняя и верхняя граница облачности), а также ознакомиться с разнообразными материалами по авиационной метеорологии и подборкой полезных ссылок на эту тему.

Сайт Метеоцентр.Азия посвящён разработке технологий оптимизации авиаметеорологического обслуживания, включая проектирование и перспективное создание нескольких автоматизированных авиаметеорологических систем:
- система выпуска высокодетальных прогностических карт явлений погоды для нижнего воздушного пространства по России и ближнему зарубежью;
- система верификации прогнозов TAF (выпускаемых синоптиками официальных АМСГ РФ и ближнего зарубежья) и AUTOTAF (выпускаемых сайтом Метеоцентр.Азия) - выявление ошибок, онлайн-сопоставление с фактической погодой METAR, автоматическое внесение коррективов в прогнозы при резком отклонении фактической погоды от прогноза, подсчёт оправдываемости прогнозов по элементам и в целом;
- система обработки, анализа и отображения авиаметеорологической информации для применения провайдерами метеорологической информации.

Рекомендуем: Москвич азлк 2141 и святогор коробка передач кпп.

Погода в Сектагли - сегодня

Время (UTC), дата Ветер
(°,м/с) 
Видим.   Явления Облачность Т
(°С)
Тd
(°С)
f(%) Тe
(°С)
Pmin
(гПа)
dP
(гПа)
Po
(мм)
O2
(г/м3)
Тmin Tmax R s Состояние
почвы
15 16.02.17 270 (З) 10 км    10/0 средняя 
[As op]
-13 -15 85 -16  1007.1  0.8  729  310           
18 16.02.17 230 (ЮЗ) 10 км  слаб. снег  10/0 средняя 
[As op]
-14.5 -16.5 85 -17  1008.1  0.9  729  312           
21 16.02.17 230 (ЮЗ) 10 км  слаб. снег  10/0 средняя 
[As op]
-16 -17.9 85 -18  1008.6  0.2  730  314  -16.2    25  равномерный
сухой снег
100% 
00 17.02.17 230 (ЮЗ) 10 км  слаб. снег  10/0 средняя 
[As op]
-16.2 -18.1 85 -16  1009.4  0.7  730  314  -17         
03 17.02.17 230 (ЮЗ) 20000 м  слаб. снег  10/0 средняя, верхняя 
[Ac trans|Cs]
-13.4 -16.9 75 -16  1009.7  0.7  731  311           
06 17.02.17 230 (ЮЗ) 20000 м  слаб. ливневой снег  10/8 600 м кучево-дожд., верхняя 
[Cb cap|Cs]
-13.9 -18.2 70 -16  1011.2  1.4  732  312           
09 17.02.17 230 (ЮЗ) 10 км  слаб. снег{ливн. осадки}  10/0 верхняя 
[Cs]
-15.4 -18.1 80 -18  1014.3  2.8  734  315    -12.8  0.6     
12 17.02.17 тихо ()   20000 м  слаб. снег{ливн. осадки}  10/0 верхняя 
[Cs]
-18.5 -19.7 90 -19  1015.6  0.9  734  319           
15 17.02.17 тихо ()   20000 м  {снег}  10/0 верхняя 
[Cs]
-20 -21.2 90 -20  1016.9  0.9  735  321           
18 17.02.17 тихо ()   20000 м  {снег}  10/0 верхняя 
[Cs]
-24 -25.2 90 -24  1018.1  0.6  736  327           
21 17.02.17 тихо ()   20000 м    10/0 верхняя 
[Cs]
-25.8 -28.3 79 -26  1018.6  0.2  736  329  -23    0.4  25  равномерный
сухой снег
100% 
00 18.02.17 тихо ()   20000 м    10/0 верхняя 
[Cs]
-27.2 -29.6 80 -27  1020.2  1.4  737  332  -28.1         
03 18.02.17 140 (ЮВ) 20000 м    10/0 верхняя 
[Cs]
-19.1 -23.2 70 -19  1018.6  -0.4  737  321           
06 18.02.17 270 (З) 20000 м    10/0 верхняя 
[Cs]
-15.3 -21.3 60 -19  1017.6  -0.4  736  316           
09 18.02.17 230 (ЮЗ) 20000 м    3/0 верхняя 
[Cs]
-17.8 -24.7 55 -18  1019.5  1.4  737  319    -14.9       
12 18.02.17 270 (З) 20000 м    ясно 
-21 -25.9 65 -21  1021.4  1.4  738  324           
15 18.02.17 тихо ()   20000 м    ясно 
-27.5 -30 79 -28  1021.7  -0.8  738  332           
18 18.02.17 тихо ()   20000 м    ясно 
-30.7 -33 80 -31  1022.5  0.2  738  337           
21 18.02.17 тихо ()   20000 м    ясно 
-32.9 -35.1 81 -33  1023.2  0.4  738  340  -33.1      25  равномерный
сухой снег
100% 
00 19.02.17 тихо ()   20000 м    ясно 
-30.1 -32.6 79 -30  1022.8  738  336  -34.1         
03 19.02.17 140 (ЮВ) 20000 м    3/0 верхняя 
[Ci fib]
-19.4 -25.2 60 -20  1019.7  -1.4  737  321           
06 19.02.17 160 (Ю) 20000 м    ясно 
-12.6 -22.1 45 -13  1016.7  -2  736  312           
09 19.02.17 тихо ()   20000 м    ясно 
-17 -25 50 -17  1017.1  -0.2  736  318    -12.3       
12 19.02.17 тихо ()   20000 м    ясно 
-24.4 -26.9 80 -24  1018.3  0.2  736  327           
15 19.02.17 тихо ()   20000 м    ясно 
-28.1 -30.5 80 -28  1019.6  0.7  736  333           
Время (UTC), дата Ветер
(°,м/с) 
Видим.   Явления Облачность Т
(°С)
Тd
(°С)
f(%) Тe
(°С)
Pmin
(гПа)
dP
(гПа)
Po
(мм)
O2
(г/м3)
Тmin Tmax R s Состояние
почвы

Для получения пояснительной информации подведите курсор к названию столбца.

ПОГОДА в Сектагли - архив

Всё, что Вы хотите узнать о погоде в Сектагли - удобно и подробно!

Выберите нужную дату (начиная с 1 января 2015* года) и нажмите кнопку "Найти".
Будут отображены архивные сводки погоды по пункту Сектагли, начиная с указанной даты.


Отображать данные в формате CSV (для использования в таблицах Excel)


Внимание! Наш архив погоды предназначен исключительно для личного некоммерческого использования в познавательных целях. Если Вам необходимы официальные справки о состоянии погоды (для производственных, юридических, коммерческих и т.п. целей), обращайтесь в органы Росгидромета.

*Примечание: данная дата относится к архиву по метеостанциям СССР (Россия, СНГ, Балтия).
Архив по метеостанциям Зарубежной Европы и Азии (кроме Китая) хранится 10 дней, по другим регионам земного шара (Китай, Африка, Америка, Австралия, Океания) - 1 день.

Сектагли - район местоположения метеостанции


Название, широта, долгота, высота метеостанции:
Сектагли 50.4°ш. 131°д. 230 м над ур. моря [Российская Федерация]

Дополнительная информация

В oтличие oт бoльшинства пoгoдных сайтoв мы публикуем пoдрoбную метеoинфoрмацию в детальнoм прoфессиoнальнoм фoрмате.

Характеристики температуры и влажнoсти вoздуха измеряются на высoте 2 м в тени вдали oт зданий и деревьев.
Скoрoсть ветра измеряется на высoте 10 м (на урoвне рoста челoвека скoрoсть ветра ниже в 1.5-2 раза). Если метеoстанция нахoдится в гoрoде или в лесу, тo скoрoсть ветра занижена на 2-4 м/с пo сравнению с oткрытым местoм. Скoрoсть ветра над акватoриями крупных рек и oзёр, а также на вершинах хoлмoв на 2-5 м/с выше, чем в oбычных услoвиях.
Атмoсфернoе давление в разных тoчках местнoсти мoжет значительнo oтличаться oт давления на метеoстанции, в зависимoсти oт услoвий рельефа (при пoдъёме на 10 м давление пoнижается примернo на 1 мм рт.ст.).